NOAA NWS Hourly Roundups by Site

Regional Weather Roundup for State College, PA

To Select Another Site Choose from List

Select Site:  

000
ASUS41 KCTP 162110
RWRCTP

REGIONAL WEATHER ROUNDUP
NATIONAL WEATHER SERVICE STATE COLLEGE PA
400 PM EST SAT NOV 16 2019

Note: "fair" indicates few or no clouds below 12,000 feet with no
significant weather and/or obstructions to visibility.

* = STATION THAT DOES NOT REPORT PRECIPITATION /E.G. RAIN...SNOW...ETC/
    THUNDER OR FOG.

PAZ002>004-007>009-013>016-020>023-029>032-162200-
WESTERN PENNSYLVANIA

CITY           SKY/WX    TMP DP  RH WIND       PRES   REMARKS
ERIE           FAIR      35  17  47 NE15      30.37F
MEADVILLE      FAIR      34  10  37 NE7       30.31S
FRANKLIN*      FAIR      36   9  32 NE9       30.31S
NEW CASTLE     FAIR      41  15  35 NE7       30.31S
BEAVER COUNTY  FAIR      41  15  34 NE3       30.29R
BUTLER*        FAIR      39  10  30 E12       30.30R
PITTSBURGH INT FAIR      41  15  35 E7        30.27S
PITTSBURGH     FAIR      41  15  35 VRB6      30.27S
INDIANA*       CLEAR     39   5  24 E10       30.34R
LATROBE        CLEAR     41   5  22 E14       30.29R
WASHINGTON CO* FAIR      42  21  43 NE9       30.29S
$$

PAZ004>006-010>012-017>019-024>028-033>037-041-042-045-046-049>053-162200-
CENTRAL PENNSYLVANIA

CITY           SKY/WX    TMP DP  RH WIND       PRES   REMARKS
BRADFORD       FAIR      32   2  27 E12       30.30S
DUBOIS         FAIR      35   4  27 E9        30.29S
CLEARFIELD     FAIR      36  -3  19 E9        30.33R
JOHNSTOWN      FAIR      35   3  26 E6        30.25S
ALTOONA        FAIR      37   8  30 E8        30.32R
STATE COLLEGE  CLEAR     37   1  22 E8        30.35R
WILLIAMSPORT   FAIR      40   2  20 NE7       30.39S
SELINSGROVE    FAIR      39   6  25 NE8       30.40R
FT INDIANTOWN  FAIR      39  -8  13 E10G20    30.39R
CAPITAL CITY   FAIR      43  -2  15 E12       30.39S
HARRISBURG     FAIR      41  -2  16 NE9G18    30.39R
YORK           LGT RAIN  40   4  22 NE8       30.37R
$$

PAZ038>040-043-044-047-048-054-055-060>062-067>071-162200-
EASTERN PENNSYLVANIA

CITY           SKY/WX    TMP DP  RH WIND       PRES   REMARKS
SCRANTON       FAIR      39  -6  14 VRB3      30.39R
MOUNT POCONO   FAIR      31  -9  17 NE9G17    30.35R
ALLENTOWN      FAIR      39   0  19 NE15      30.41S
QUAKERTOWN*      N/A     39  -2  17 NE7       30.40S
READING        FAIR      40   3  21 NE10      30.39R
LANCASTER      FAIR      40   3  21 E12       30.38S
COATESVILLE    FAIR      37   1  22 E13G20    30.38S
POTTSTOWN      FLURRIES  38   3  23 NE9       30.41S
BLUE BELL      FAIR      39  -1  18 E13G20    30.40S
DOYLESTOWN     FAIR      41   0  18 VRB6      30.39S
WILLOW GROVE   NOT AVBL
NORTH PHILA    FAIR      42   3  19 E17       30.42S
PHILADELPHIA   FAIR      41   5  22 NE13G23   30.40S
$$


 

View Past Reports for State College, PA.

Products Courtesy of NOAA-NWS
NWS Information Parsing Script by Ken True at Saratoga Weather - Script by SE Lincoln Weather.